Torna al catalogo

THOR ABLESTAR DEB

AttivoPO
NORAD 2701·DEBRIS·🇺🇸 United States

Lanciato Jun 24, 1965 da Vandenberg Space Force Base

Loading…

Prossimi Passaggi (prossime 24 ore)

TLE

AggiornatoSource: Space-Track

Epoca: Sep 14, 2026, 12:53 UTC

1 02701U 65048E   26257.53699558  .00000214  00000-0  25317-3 0  9993
2 02701  89.8701 286.2659 0062012 342.8915 170.9025 13.64011315 33472

Traccia THOR ABLESTAR DEB in tempo reale con AllMySat

Download on the App Store